This is the latest recevied weather packets stored in our database for station/object N8QF. If no packets are shown the sender has not sent any weather packets the latest 10 day(s).
| Time | Temp. | Humidity | Pressure | Rain* | Wind** | Luminosity | Snow |
|---|---|---|---|---|---|---|---|
| 1777842749 | 15° C | 38% | 1013.9 hPa | 0 mm | - | - | - |
| 1777842448 | 15° C | 38% | 1013.8 hPa | 0 mm | - | - | - |
| 1777842148 | 14.44° C | 36% | 1014.1 hPa | 0 mm | - | - | - |
| 1777841848 | 15° C | 37% | 1014.3 hPa | 0 mm | - | - | - |
| 1777841548 | 15° C | 36% | 1014.7 hPa | 0 mm | - | - | - |
| 1777841247 | 15° C | 37% | 1014.7 hPa | 0 mm | - | - | - |
| 1777840947 | 15° C | 36% | 1014.6 hPa | 0 mm | - | - | - |
| 1777840647 | 15° C | 35% | 1014.6 hPa | 0 mm | - | - | - |
| 1777840346 | 15° C | 36% | 1014.6 hPa | 0 mm | - | - | - |
| 1777840046 | 15° C | 37% | 1014.5 hPa | 0 mm | - | - | - |
| 1777839745 | 15° C | 35% | 1014.4 hPa | 0 mm | - | - | - |
| 1777839445 | 15° C | 36% | 1014.4 hPa | 0 mm | - | - | - |
| 1777839145 | 15° C | 35% | 1014.3 hPa | 0 mm | - | - | - |
| 1777838845 | 15.56° C | 40% | 1014.3 hPa | 0 mm | - | - | - |
| 1777838545 | 15.56° C | 38% | 1014.3 hPa | 0 mm | - | - | - |
| 1777838244 | 15.56° C | 36% | 1014.4 hPa | 0 mm | - | - | - |
| 1777837944 | 15° C | 35% | 1014.3 hPa | 0 mm | - | - | - |
| 1777837643 | 15.56° C | 38% | 1014.5 hPa | 0 mm | - | - | - |
| 1777837343 | 16.11° C | 36% | 1014.7 hPa | 0 mm | - | - | - |
| 1777837042 | 16.11° C | 37% | 1014.8 hPa | 0 mm | - | - | - |
| 1777836742 | 16.11° C | 34% | 1015.1 hPa | 0 mm | - | - | - |
| 1777836441 | 16.11° C | 37% | 1015.2 hPa | 0 mm | - | - | - |
| 1777836141 | 16.67° C | 38% | 1015.2 hPa | 0 mm | - | - | - |
| 1777835841 | 16.67° C | 35% | 1015.3 hPa | 0 mm | - | - | - |
| 1777835541 | 16.11° C | 36% | 1015.3 hPa | 0 mm | - | - | - |
* Rain since midnight (hover to see other rain measurements)
** Current wind speed in m/s (hover to see current wind gust speed)